This is the latest recevied weather packets stored in our database for station/object K7AEL. If no packets are shown the sender has not sent any weather packets the latest 10 day(s).
| Time | Temp. | Humidity | Pressure | Rain* | Wind** | Luminosity | Snow |
|---|---|---|---|---|---|---|---|
| 1777487299 | 27.22° C | 16% | 1016.9 hPa | 0 mm | - | 709 W/m² | - |
| 1777486997 | 27.22° C | 16% | 1017 hPa | 0 mm | - | 735 W/m² | - |
| 1777486693 | 26.67° C | 17% | 1017 hPa | 0 mm | - | 736 W/m² | - |
| 1777486390 | 26.67° C | 17% | 1017.1 hPa | 0 mm | - | 731 W/m² | - |
| 1777486088 | 27.22° C | 17% | 1017.2 hPa | 0 mm | - | 761 W/m² | - |
| 1777485784 | 26.67° C | 16% | 1017 hPa | 0 mm | - | 634 W/m² | - |
| 1777485480 | 25.56° C | 17% | 1017.1 hPa | 0 mm | - | 578 W/m² | - |
| 1777485176 | 25.56° C | 17% | 1017.1 hPa | 0 mm | - | 247 W/m² | - |
| 1777484872 | 25.56° C | 17% | 1017.5 hPa | 0 mm | - | 267 W/m² | - |
| 1777484570 | 26.11° C | 18% | 1017.2 hPa | 0 mm | - | 271 W/m² | - |
| 1777484266 | 25.56° C | 18% | 1017.6 hPa | 0 mm | - | 454 W/m² | - |
| 1777483962 | 25.56° C | 19% | 1017.6 hPa | 0 mm | - | 253 W/m² | - |
| 1777483659 | 25.56° C | 17% | 1017.6 hPa | 0 mm | - | 319 W/m² | - |
| 1777483354 | 25.56° C | 18% | 1017.6 hPa | 0 mm | - | 424 W/m² | - |
| 1777483050 | 25.56° C | 17% | 1017.5 hPa | 0 mm | - | 332 W/m² | - |
| 1777482747 | 25° C | 18% | 1017.5 hPa | 0 mm | - | 411 W/m² | - |
| 1777482443 | 25° C | 19% | 1017.4 hPa | 0 mm | - | 467 W/m² | - |
| 1777482141 | 25° C | 19% | 1017.4 hPa | 0 mm | - | 415 W/m² | - |
| 1777481838 | 25° C | 20% | 1017.5 hPa | 0 mm | - | 276 W/m² | - |
| 1777481534 | 24.44° C | 20% | 1017.3 hPa | 0 mm | - | 439 W/m² | - |
| 1777481226 | 25° C | 19% | 1017.4 hPa | 0 mm | - | 352 W/m² | - |
| 1777480923 | 25° C | 20% | 1017.3 hPa | 0 mm | - | 286 W/m² | - |
| 1777480619 | 25° C | 20% | 1017.4 hPa | 0 mm | - | 279 W/m² | - |
| 1777480316 | 23.89° C | 20% | 1017.4 hPa | 0 mm | - | 541 W/m² | - |
| 1777480011 | 24.44° C | 20% | 1017.3 hPa | 0 mm | - | 443 W/m² | - |
* Rain latest hour (hover to see other rain measurements)
** Current wind speed in m/s (hover to see current wind gust speed)